| time (UTC) | temp F | wind direction | speed knots | gust knots | rain 1hr in | rain 24hr in | rain mn in | humidity % | barometer mb |
| 20260510022545 | 60 | 164 | 0.0 | 4.3 | 0.00 | 0.00 | 0.00 | 30 | 1031.5 |
| 20260510021516 | 60 | 0.0 | 0.0 | 0.00 | 0.00 | 0.00 | 30 | 1031.5 | |
| 20260510020525 | 60 | 0.0 | 0.0 | 0.00 | 0.00 | 0.00 | 30 | 1031.6 | |
| 20260510015517 | 60 | 174 | 0.9 | 4.3 | 0.00 | 0.00 | 0.00 | 30 | 1031.9 |
| 20260510014525 | 59 | 0.0 | 0.0 | 0.00 | 0.00 | 0.00 | 30 | 1031.9 | |
| 20260510013517 | 59 | 133 | 0.9 | 6.1 | 0.00 | 0.00 | 0.00 | 30 | 1032.0 |
| 20260510012517 | 59 | 0.0 | 0.0 | 0.00 | 0.00 | 0.00 | 30 | 1032.1 | |
| 20260510011516 | 59 | 101 | 0.0 | 1.7 | 0.00 | 0.00 | 0.00 | 31 | 1032.1 |
| 20260510010525 | 59 | 188 | 0.9 | 4.3 | 0.00 | 0.00 | 0.00 | 31 | 1032.1 |
| 20260510005537 | 59 | 0.0 | 0.0 | 0.00 | 0.00 | 0.00 | 31 | 1032.1 | |
| 20260510004524 | 59 | 126 | 0.0 | 1.7 | 0.00 | 0.00 | 0.00 | 31 | 1032.0 |
| 20260510003516 | 58 | 0.0 | 0.0 | 0.00 | 0.00 | 0.00 | 31 | 1032.1 | |
| 20260510002544 | 58 | 0.0 | 0.0 | 0.00 | 0.00 | 0.00 | 32 | 1032.1 | |
| 20260510001517 | 58 | 270 | 0.0 | 1.7 | 0.00 | 0.00 | 0.00 | 32 | 1032.1 |
| 20260510000525 | 58 | 169 | 0.9 | 4.3 | 0.00 | 0.00 | 0.00 | 33 | 1032.1 |
| 20260509235516 | 58 | 0.0 | 0.0 | 0.00 | 0.00 | 0.00 | 33 | 1032.0 | |
| 20260509234525 | 57 | 126 | 0.0 | 6.1 | 0.00 | 0.00 | 0.00 | 35 | 1032.1 |
| 20260509233517 | 57 | 0.0 | 0.0 | 0.00 | 0.00 | 0.00 | 37 | 1032.0 | |
| 20260509232526 | 57 | 0.0 | 0.0 | 0.00 | 0.00 | 0.00 | 40 | 1032.0 | |
| 20260509231536 | 57 | 0.0 | 0.0 | 0.00 | 0.00 | 0.00 | 42 | 1032.0 | |
| 20260509230524 | 56 | 0.0 | 0.0 | 0.00 | 0.00 | 0.00 | 45 | 1032.0 | |
| 20260509225517 | 56 | 0.0 | 0.0 | 0.00 | 0.00 | 0.00 | 49 | 1031.9 | |
| 20260509224525 | 55 | 0.0 | 0.0 | 0.00 | 0.00 | 0.00 | 52 | 1031.8 | |
| 20260509223537 | 55 | 0.0 | 0.0 | 0.00 | 0.00 | 0.00 | 53 | 1031.8 | |
| 20260509221516 | 55 | 0.0 | 0.0 | 0.00 | 0.00 | 0.00 | 59 | 1031.6 | |
| 20260509220525 | 55 | 0.0 | 0.0 | 0.00 | 0.00 | 0.00 | 63 | 1031.3 | |
| 20260509215536 | 54 | 0.0 | 0.0 | 0.00 | 0.00 | 0.00 | 62 | 1031.2 | |
| 20260509214524 | 54 | 0.0 | 0.0 | 0.00 | 0.00 | 0.00 | 62 | 1031.1 | |
| 20260509213516 | 54 | 0.0 | 0.0 | 0.00 | 0.00 | 0.00 | 61 | 1030.9 | |
| 20260509212524 | 54 | 0.0 | 0.0 | 0.00 | 0.00 | 0.00 | 60 | 1030.8 | |
| 20260509211516 | 54 | 0.0 | 0.0 | 0.00 | 0.00 | 0.00 | 59 | 1030.8 | |
| 20260509210524 | 54 | 0.0 | 0.0 | 0.00 | 0.00 | 0.00 | 58 | 1030.7 | |
| 20260509205516 | 54 | 0.0 | 0.0 | 0.00 | 0.00 | 0.00 | 58 | 1030.5 | |
| 20260509204518 | 54 | 0.0 | 0.0 | 0.00 | 0.00 | 0.00 | 58 | 1030.4 | |
| 20260509203529 | 55 | 0.0 | 0.0 | 0.00 | 0.00 | 0.00 | 58 | 1030.4 | |
| 20260509202524 | 55 | 0.0 | 0.0 | 0.00 | 0.00 | 0.00 | 59 | 1030.3 | |
| 20260509201532 | 55 | 0.0 | 0.0 | 0.00 | 0.00 | 0.00 | 62 | 1030.2 | |
| 20260509200524 | 55 | 0.0 | 0.0 | 0.00 | 0.00 | 0.00 | 71 | 1030.2 | |
| 20260509195533 | 55 | 0.0 | 0.0 | 0.00 | 0.00 | 0.00 | 76 | 1030.0 | |
| 20260509194524 | 55 | 0.0 | 0.0 | 0.00 | 0.00 | 0.00 | 77 | 1030.0 | |
| 20260509193529 | 55 | 0.0 | 0.0 | 0.00 | 0.00 | 0.00 | 78 | 1029.9 | |
| 20260509192523 | 55 | 0.0 | 0.0 | 0.00 | 0.00 | 0.00 | 79 | 1029.7 | |
| 20260509191526 | 55 | 0.0 | 0.0 | 0.00 | 0.00 | 0.00 | 79 | 1029.6 | |
| 20260509190524 | 55 | 0.0 | 0.0 | 0.00 | 0.00 | 0.00 | 79 | 1029.5 | |
| 20260509185533 | 55 | 0.0 | 0.0 | 0.00 | 0.00 | 0.00 | 80 | 1029.5 | |
| 20260509184524 | 56 | 236 | 0.0 | 1.7 | 0.00 | 0.00 | 0.00 | 82 | 1029.3 |
| 20260509183532 | 56 | 0.0 | 0.0 | 0.00 | 0.00 | 0.00 | 82 | 1029.3 | |
| 20260509182524 | 56 | 0.0 | 0.0 | 0.00 | 0.00 | 0.00 | 82 | 1029.2 | |
| 20260509181516 | 56 | 0.0 | 0.0 | 0.00 | 0.00 | 0.00 | 82 | 1029.1 | |
| 20260509180529 | 56 | 0.0 | 0.0 | 0.00 | 0.00 | 0.00 | 82 | 1029.1 | |
| 20260509175528 | 56 | 0.0 | 0.0 | 0.00 | 0.00 | 0.00 | 82 | 1029.0 | |
| 20260509174523 | 56 | 0.0 | 0.0 | 0.00 | 0.00 | 0.00 | 82 | 1029.0 | |
| 20260509173534 | 56 | 0.0 | 0.0 | 0.00 | 0.00 | 0.00 | 81 | 1029.0 | |
| 20260509172524 | 56 | 0.0 | 0.0 | 0.00 | 0.00 | 0.00 | 81 | 1029.0 | |
| 20260509171522 | 56 | 0.0 | 0.0 | 0.00 | 0.00 | 0.00 | 81 | 1029.1 | |
| 20260509170518 | 56 | 0.0 | 0.0 | 0.00 | 0.00 | 0.00 | 81 | 1029.0 | |
| 20260509165533 | 56 | 0.0 | 0.0 | 0.00 | 0.00 | 0.00 | 81 | 1029.1 | |
| 20260509164524 | 56 | 0.0 | 0.0 | 0.00 | 0.00 | 0.00 | 81 | 1029.2 | |
| 20260509163533 | 56 | 0.0 | 0.0 | 0.00 | 0.00 | 0.00 | 81 | 1029.2 | |
| 20260509162528 | 56 | 0.0 | 0.0 | 0.00 | 0.00 | 0.00 | 80 | 1029.2 | |
| 20260509161533 | 56 | 0.0 | 0.0 | 0.00 | 0.00 | 0.00 | 80 | 1029.3 | |
| 20260509160524 | 56 | 0.0 | 0.0 | 0.00 | 0.00 | 0.00 | 80 | 1029.4 | |
| 20260509155532 | 56 | 0.0 | 0.0 | 0.00 | 0.00 | 0.00 | 80 | 1029.4 | |
| 20260509154523 | 55 | 0.0 | 0.0 | 0.00 | 0.00 | 0.00 | 80 | 1029.3 | |
| 20260509153534 | 55 | 0.0 | 0.0 | 0.00 | 0.00 | 0.00 | 80 | 1029.3 | |
| 20260509152523 | 55 | 0.0 | 0.0 | 0.00 | 0.00 | 0.00 | 79 | 1029.3 | |
| 20260509151553 | 55 | 0.0 | 0.0 | 0.00 | 0.00 | 0.00 | 79 | 1029.3 | |
| 20260509150517 | 55 | 0.0 | 0.0 | 0.00 | 0.00 | 0.00 | 78 | 1029.3 | |
| 20260509145533 | 55 | 0.0 | 0.0 | 0.00 | 0.00 | 0.00 | 77 | 1029.2 | |
| 20260509144523 | 55 | 0.0 | 0.0 | 0.00 | 0.00 | 0.00 | 76 | 1029.3 | |
| 20260509143534 | 55 | 0.0 | 0.0 | 0.00 | 0.00 | 0.00 | 75 | 1029.4 | |
| 20260509142524 | 55 | 0.0 | 0.0 | 0.00 | 0.00 | 0.00 | 73 | 1029.4 | |
| 20260509141533 | 55 | 0.0 | 0.0 | 0.00 | 0.00 | 0.00 | 70 | 1029.5 | |
| 20260509140558 | 55 | 0.0 | 0.0 | 0.00 | 0.00 | 0.00 | 65 | 1029.6 | |
| 20260509135533 | 56 | 0.0 | 0.0 | 0.00 | 0.00 | 0.00 | 59 | 1029.5 | |
| 20260509134524 | 56 | 0.0 | 0.0 | 0.00 | 0.00 | 0.00 | 55 | 1029.4 | |
| 20260509133533 | 56 | 0.0 | 0.0 | 0.00 | 0.00 | 0.00 | 51 | 1029.4 | |
| 20260509132523 | 56 | 0.0 | 0.0 | 0.00 | 0.00 | 0.00 | 47 | 1029.4 | |
| 20260509131532 | 56 | 0.0 | 0.0 | 0.00 | 0.00 | 0.00 | 46 | 1029.4 | |
| 20260509130523 | 56 | 0.0 | 0.0 | 0.00 | 0.00 | 0.00 | 45 | 1029.5 | |
| 20260509125530 | 56 | 0.0 | 0.0 | 0.00 | 0.00 | 0.00 | 45 | 1029.5 | |
| 20260509124523 | 56 | 0.0 | 0.0 | 0.00 | 0.00 | 0.00 | 45 | 1029.5 | |
| 20260509123521 | 56 | 0.0 | 0.0 | 0.00 | 0.00 | 0.00 | 45 | 1029.5 | |
| 20260509122523 | 56 | 0.0 | 0.0 | 0.00 | 0.00 | 0.00 | 45 | 1029.5 | |
| 20260509121519 | 56 | 0.0 | 0.0 | 0.00 | 0.00 | 0.00 | 45 | 1029.4 | |
| 20260509120521 | 56 | 0.0 | 0.0 | 0.00 | 0.00 | 0.00 | 45 | 1029.5 | |
| 20260509115533 | 56 | 0.0 | 0.0 | 0.00 | 0.00 | 0.00 | 45 | 1029.4 | |
| 20260509114523 | 56 | 0.0 | 0.0 | 0.00 | 0.00 | 0.00 | 44 | 1029.4 | |
| 20260509113523 | 56 | 0.0 | 0.0 | 0.00 | 0.00 | 0.00 | 44 | 1029.2 | |
| 20260509112543 | 56 | 0.0 | 0.0 | 0.00 | 0.00 | 0.00 | 44 | 1029.2 | |
| 20260509111532 | 56 | 0.0 | 0.0 | 0.00 | 0.00 | 0.00 | 45 | 1029.2 | |
| 20260509110523 | 56 | 0.0 | 0.0 | 0.00 | 0.00 | 0.00 | 46 | 1029.1 | |
| 20260509105532 | 56 | 0.0 | 0.0 | 0.00 | 0.00 | 0.00 | 46 | 1029.0 | |
| 20260509104523 | 56 | 0.0 | 0.0 | 0.00 | 0.00 | 0.00 | 46 | 1029.0 | |
| 20260509103532 | 56 | 0.0 | 0.0 | 0.00 | 0.00 | 0.00 | 45 | 1028.8 | |
| 20260509102522 | 56 | 0.0 | 0.0 | 0.00 | 0.00 | 0.00 | 44 | 1028.9 | |
| 20260509101532 | 56 | 266 | 0.0 | 1.7 | 0.00 | 0.00 | 0.00 | 44 | 1028.9 |
| 20260509100546 | 57 | 0.0 | 0.0 | 0.00 | 0.00 | 0.00 | 44 | 1029.0 | |
| 20260509095550 | 57 | 0.0 | 0.0 | 0.00 | 0.00 | 0.00 | 44 | 1028.9 | |
| 20260509094529 | 57 | 0.0 | 0.0 | 0.00 | 0.00 | 0.00 | 44 | 1028.8 | |
| 20260509093552 | 57 | 0.0 | 0.0 | 0.00 | 0.00 | 0.00 | 42 | 1028.9 | |
| 20260509092523 | 57 | 0.0 | 0.0 | 0.00 | 0.00 | 0.00 | 42 | 1028.9 | |
| 20260509091530 | 57 | 0.0 | 0.0 | 0.00 | 0.00 | 0.00 | 42 | 1028.7 | |
| 20260509090552 | 57 | 0.0 | 0.0 | 0.00 | 0.00 | 0.00 | 42 | 1028.7 | |
| 20260509085533 | 57 | 273 | 0.0 | 4.3 | 0.00 | 0.00 | 0.00 | 41 | 1028.5 |
| 20260509084542 | 57 | 269 | 0.9 | 4.3 | 0.00 | 0.00 | 0.00 | 41 | 1028.6 |
| 20260509083530 | 57 | 225 | 0.0 | 1.7 | 0.00 | 0.00 | 0.00 | 41 | 1028.4 |
| 20260509082523 | 57 | 0.0 | 0.0 | 0.00 | 0.00 | 0.00 | 39 | 1028.2 | |
| 20260509081532 | 57 | 0.0 | 0.0 | 0.00 | 0.00 | 0.00 | 39 | 1028.2 | |
| 20260509080523 | 58 | 0.0 | 0.0 | 0.00 | 0.00 | 0.00 | 39 | 1028.1 | |
| 20260509075532 | 58 | 114 | 0.0 | 4.3 | 0.00 | 0.00 | 0.00 | 39 | 1028.1 |
| 20260509074523 | 58 | 0.0 | 0.0 | 0.00 | 0.00 | 0.00 | 39 | 1028.0 | |
| 20260509073552 | 58 | 0.0 | 0.0 | 0.00 | 0.00 | 0.00 | 39 | 1027.9 | |
| 20260509072540 | 58 | 0.0 | 0.0 | 0.00 | 0.00 | 0.00 | 38 | 1027.6 | |
| 20260509071524 | 59 | 0.0 | 0.0 | 0.00 | 0.00 | 0.00 | 37 | 1027.6 | |
| 20260509070522 | 59 | 0.0 | 0.0 | 0.00 | 0.00 | 0.00 | 36 | 1027.6 | |
| 20260509065532 | 59 | 254 | 0.0 | 1.7 | 0.00 | 0.00 | 0.00 | 35 | 1027.6 |
| 20260509064522 | 59 | 0.0 | 0.0 | 0.00 | 0.00 | 0.00 | 35 | 1027.6 | |
| 20260509063532 | 60 | 267 | 0.9 | 4.3 | 0.00 | 0.00 | 0.00 | 35 | 1027.4 |
| 20260509062523 | 60 | 282 | 0.0 | 1.7 | 0.00 | 0.00 | 0.00 | 35 | 1027.5 |
| 20260509061530 | 60 | 254 | 0.0 | 1.7 | 0.00 | 0.00 | 0.00 | 34 | 1027.3 |
| 20260509060522 | 60 | 0.0 | 0.0 | 0.00 | 0.00 | 0.00 | 34 | 1027.3 | |
| 20260509055550 | 60 | 0.0 | 0.0 | 0.00 | 0.00 | 0.00 | 32 | 1027.4 | |
| 20260509054522 | 60 | 0.0 | 0.0 | 0.00 | 0.00 | 0.00 | 34 | 1027.3 | |
| 20260509053532 | 60 | 0.0 | 0.0 | 0.00 | 0.00 | 0.00 | 34 | 1027.3 | |
| 20260509052523 | 60 | 0.0 | 0.0 | 0.00 | 0.00 | 0.00 | 34 | 1027.2 | |
| 20260509051530 | 60 | 270 | 0.9 | 4.3 | 0.00 | 0.00 | 0.00 | 33 | 1027.5 |
| 20260509050522 | 60 | 164 | 0.0 | 1.7 | 0.00 | 0.00 | 0.00 | 34 | 1027.4 |
| 20260509045532 | 60 | 270 | 0.0 | 1.7 | 0.00 | 0.00 | 0.00 | 34 | 1027.4 |
| 20260509044549 | 60 | 257 | 0.0 | 4.3 | 0.00 | 0.00 | 0.00 | 34 | 1027.4 |
| 20260509043519 | 60 | 0.0 | 0.0 | 0.00 | 0.00 | 0.00 | 34 | 1027.5 | |
| 20260509042522 | 60 | 0.0 | 0.0 | 0.00 | 0.00 | 0.00 | 35 | 1027.5 | |
| 20260509041529 | 60 | 283 | 0.0 | 1.7 | 0.00 | 0.00 | 0.00 | 35 | 1027.4 |
| 20260509040522 | 60 | 256 | 0.9 | 6.1 | 0.00 | 0.00 | 0.00 | 34 | 1027.3 |
| 20260509035530 | 60 | 259 | 0.0 | 4.3 | 0.00 | 0.00 | 0.00 | 35 | 1027.4 |
| 20260509034541 | 60 | 261 | 0.0 | 1.7 | 0.00 | 0.00 | 0.00 | 35 | 1027.5 |
| 20260509033530 | 61 | 260 | 0.9 | 6.1 | 0.00 | 0.00 | 0.00 | 35 | 1027.5 |
| 20260509032523 | 60 | 223 | 0.0 | 4.3 | 0.00 | 0.00 | 0.00 | 33 | 1027.5 |
| 20260509031530 | 60 | 258 | 0.0 | 1.7 | 0.00 | 0.00 | 0.00 | 33 | 1027.5 |
| 20260509030522 | 59 | 231 | 0.0 | 1.7 | 0.00 | 0.00 | 0.00 | 36 | 1027.7 |
| 20260509025550 | 59 | 275 | 0.0 | 1.7 | 0.00 | 0.00 | 0.00 | 37 | 1027.8 |
| 20260509024522 | 59 | 239 | 0.0 | 4.3 | 0.00 | 0.00 | 0.00 | 37 | 1027.9 |
| 20260509023529 | 59 | 263 | 0.0 | 4.3 | 0.00 | 0.00 | 0.00 | 37 | 1028.0 |